Superior, WI

9:25 PM CDT on July 22, 2017 (GMT -0500)
Bong

Weather History for KSUW - May, 2014

Change the Weather History Date:

Saturday, May 3, 2014

  Actual Average Record
Temperature  
Mean Temperature 46 °F -  
Max Temperature 55 °F 54 °F 80 °F (2000)
Min Temperature 39 °F 35 °F 11 °F (1967)
Degree Days  
Heating Degree Days 18    
Moisture  
Dew Point 32 °F    
Average Humidity 60    
Maximum Humidity 82    
Minimum Humidity 36    
Precipitation  
Precipitation 0.00 in - - ()
Sea Level Pressure  
Sea Level Pressure 29.77 in    
Wind  
Wind Speed 12 mph (NW)    
Max Wind Speed 23 mph    
Max Gust Speed 29 mph    
Visibility 10 miles    
Events      
Averages and records for this station are not official NWS values.
T = Trace of Precipitation, MM = Missing Value Source: NWS Daily Summary

Daily Weather History Graph

Daily Weather History Graph

Search for Another Location

Airport or City:

Trip Planner

Search our weather history database for the weather conditions in past years. The results will help you decide how hot, cold, wet, or windy it might be!

Date:

Astronomy

May. 03, 2014 Rise Set
Actual Time 5:50 AM CDT 8:20 PM CDT
Civil Twilight 5:16 AM CDT 8:54 PM CDT
Nautical Twilight 4:34 AM CDT 9:37 PM CDT
Astronomical Twilight 3:45 AM CDT 10:26 PM CDT
Moon 9:17 AM CDT (5/3) No Moon Set
Length of Visible Light 15h 38m
Length of Day
14h 30m
Waxing Crescent, 20% of the Moon is Illuminated
May 3
Waxing Crescent
May 6
First Quarter
May 14
Full
May 21
Last Quarter
May 28
New

Hourly Weather History & Observations

Time (CDT) Temp. Windchill Dew Point Humidity Pressure Visibility Wind Dir Wind Speed Gust Speed Precip Events Conditions
12:15 AM 44.6 °F 38.8 °F 37.4 °F 76% 29.65 in 10.0 mi WNW 11.5 mph - N/A   Overcast
12:35 AM 44.1 °F 39.0 °F 37.8 °F 78% 29.65 in 10.0 mi WNW 9.2 mph - N/A   Overcast
12:55 AM 42.8 °F 36.6 °F 37.8 °F 82% 29.66 in 10.0 mi WNW 11.5 mph - N/A   Overcast
1:15 AM 42.8 °F 37.0 °F 37.4 °F 81% 29.66 in 10.0 mi WNW 10.4 mph - N/A   Overcast
1:35 AM 43.0 °F 37.7 °F 37.4 °F 81% 29.66 in 10.0 mi WNW 9.2 mph - N/A   Overcast
1:55 AM 42.8 °F 37.5 °F 36.9 °F 80% 29.67 in 10.0 mi WNW 9.2 mph - N/A   Overcast
2:15 AM 42.8 °F 38.0 °F 36.9 °F 80% 29.67 in 10.0 mi WNW 8.1 mph - N/A   Overcast
2:35 AM 42.4 °F 36.5 °F 36.7 °F 80% 29.67 in 10.0 mi West 10.4 mph 16.1 mph N/A   Overcast
2:55 AM 42.4 °F 36.1 °F 36.9 °F 81% 29.68 in 10.0 mi WNW 11.5 mph 16.1 mph N/A   Overcast
3:15 AM 42.4 °F 38.1 °F 36.9 °F 81% 29.68 in 10.0 mi NW 6.9 mph - N/A   Overcast
3:35 AM 42.4 °F 36.5 °F 36.7 °F 80% 29.68 in 10.0 mi NW 10.4 mph 16.1 mph N/A   Overcast
3:55 AM 42.3 °F 36.3 °F 36.9 °F 81% 29.68 in 10.0 mi WNW 10.4 mph - N/A   Overcast
4:15 AM 42.3 °F 36.3 °F 36.7 °F 81% 29.69 in 10.0 mi WNW 10.4 mph - N/A   Overcast
4:35 AM 42.1 °F 34.9 °F 36.3 °F 80% 29.69 in 10.0 mi WNW 13.8 mph - N/A   Overcast
4:55 AM 41.9 °F 33.7 °F 35.6 °F 78% 29.69 in 10.0 mi WNW 17.3 mph 21.9 mph N/A   Overcast
5:15 AM 41.2 °F 31.4 °F 34.9 °F 78% 29.70 in 10.0 mi NW 23.0 mph 28.8 mph N/A   Overcast
5:35 AM 41.0 °F 32.8 °F 34.5 °F 78% 29.70 in 10.0 mi NW 16.1 mph 21.9 mph N/A   Overcast
5:55 AM 41.0 °F 32.8 °F 34.3 °F 77% 29.71 in 10.0 mi NW 16.1 mph - N/A   Overcast
6:15 AM 41.0 °F 33.9 °F 34.3 °F 77% 29.71 in 10.0 mi NW 12.7 mph - N/A   Overcast
6:35 AM 41.0 °F 33.9 °F 34.3 °F 77% 29.72 in 10.0 mi NW 12.7 mph - N/A   Overcast
6:55 AM 41.4 °F 35.7 °F 33.6 °F 74% 29.73 in 10.0 mi WNW 9.2 mph - N/A   Overcast
7:15 AM 42.3 °F 35.9 °F 33.6 °F 71% 29.74 in 10.0 mi WNW 11.5 mph - N/A   Overcast
7:35 AM 43.3 °F 37.2 °F 33.6 °F 69% 29.74 in 10.0 mi WNW 11.5 mph - N/A   Overcast
7:55 AM 43.5 °F 38.3 °F 33.8 °F 69% 29.75 in 10.0 mi WNW 9.2 mph 16.1 mph N/A   Overcast
8:15 AM 44.1 °F 38.6 °F 34.3 °F 69% 29.75 in 10.0 mi NW 10.4 mph 16.1 mph N/A   Overcast
8:35 AM 44.4 °F 37.5 °F 33.8 °F 66% 29.76 in 10.0 mi NW 15.0 mph 19.6 mph N/A   Overcast
8:55 AM 46.2 °F 40.1 °F 34.5 °F 64% 29.75 in 10.0 mi NW 13.8 mph 20.7 mph N/A   Overcast
9:15 AM 46.8 °F - 34.0 °F 61% 29.75 in 10.0 mi NW 10.4 mph 19.6 mph N/A   Overcast
9:35 AM 47.5 °F - 33.6 °F 59% 29.76 in 10.0 mi NW 12.7 mph 19.6 mph N/A   Overcast
9:55 AM 47.7 °F - 33.6 °F 58% 29.75 in 10.0 mi WNW 13.8 mph 19.6 mph N/A   Overcast
10:15 AM 48.9 °F - 33.6 °F 56% 29.76 in 10.0 mi NW 8.1 mph 17.3 mph N/A   Overcast
10:35 AM 50.0 °F - 32.2 °F 50% 29.76 in 10.0 mi NW 11.5 mph 17.3 mph N/A   Overcast
10:55 AM 51.8 °F - 32.5 °F 48% 29.77 in 10.0 mi WNW 17.3 mph 20.7 mph N/A   Overcast
11:15 AM 52.5 °F - 33.1 °F 48% 29.77 in 10.0 mi NW 16.1 mph 21.9 mph N/A   Overcast
11:35 AM 53.2 °F - 32.4 °F 45% 29.77 in 10.0 mi NW 15.0 mph 20.7 mph N/A   Overcast
11:55 AM 53.6 °F - 31.3 °F 43% 29.77 in 10.0 mi NW 12.7 mph 17.3 mph N/A   Overcast
12:15 PM 53.8 °F - 30.2 °F 41% 29.76 in 10.0 mi NW 12.7 mph 21.9 mph N/A   Overcast
12:35 PM 53.2 °F - 28.6 °F 39% 29.77 in 10.0 mi NW 15.0 mph 20.7 mph N/A   Overcast
12:55 PM 52.0 °F - 28.2 °F 40% 29.77 in 10.0 mi NW 13.8 mph - N/A   Overcast
1:15 PM 52.2 °F - 28.4 °F 40% 29.77 in 10.0 mi NNW 13.8 mph - N/A   Overcast
1:35 PM 52.9 °F - 27.9 °F 38% 29.77 in 10.0 mi NNW 11.5 mph 17.3 mph N/A   Overcast
1:55 PM 53.2 °F - 29.3 °F 40% 29.77 in 10.0 mi NW 12.7 mph - N/A   Overcast
2:15 PM 52.9 °F - 27.7 °F 38% 29.77 in 10.0 mi NW 9.2 mph 18.4 mph N/A   Overcast
2:35 PM 53.8 °F - 28.6 °F 38% 29.77 in 10.0 mi WNW 10.4 mph - N/A   Overcast
2:55 PM 53.6 °F - 28.0 °F 37% 29.77 in 10.0 mi WNW 10.4 mph 20.7 mph N/A   Overcast
3:15 PM 54.0 °F - 27.9 °F 37% 29.77 in 10.0 mi NW 8.1 mph - N/A   Overcast
3:35 PM 54.0 °F - 27.7 °F 36% 29.76 in 10.0 mi NW 11.5 mph 19.6 mph N/A   Overcast
3:55 PM 54.1 °F - 28.9 °F 38% 29.77 in 10.0 mi WNW 15.0 mph 20.7 mph N/A   Overcast
4:15 PM 52.9 °F - 28.6 °F 39% 29.77 in 10.0 mi WNW 13.8 mph 18.4 mph N/A   Overcast
4:35 PM 52.9 °F - 31.8 °F 45% 29.78 in 10.0 mi NW 19.6 mph - N/A   Overcast
4:55 PM 53.6 °F - 34.2 °F 48% 29.79 in 10.0 mi NW 17.3 mph 23.0 mph N/A   Mostly Cloudy
5:15 PM 50.2 °F - 34.7 °F 55% 29.80 in 10.0 mi NW 16.1 mph 21.9 mph N/A   Overcast
5:35 PM 48.6 °F - 36.3 °F 63% 29.81 in 10.0 mi NW 15.0 mph - N/A   Overcast
5:55 PM 49.1 °F - 35.8 °F 60% 29.81 in 10.0 mi NW 8.1 mph 18.4 mph N/A   Overcast
6:15 PM 49.1 °F - 36.0 °F 61% 29.81 in 10.0 mi NW 11.5 mph 18.4 mph N/A   Overcast
6:35 PM 50.7 °F - 35.2 °F 55% 29.81 in 10.0 mi NW 11.5 mph 17.3 mph N/A   Mostly Cloudy
6:55 PM 50.4 °F - 32.5 °F 50% 29.82 in 10.0 mi NW 17.3 mph 24.2 mph N/A   Overcast
7:15 PM 49.1 °F - 31.6 °F 51% 29.83 in 10.0 mi NNW 13.8 mph 24.2 mph N/A   Mostly Cloudy
7:35 PM 47.1 °F - 30.6 °F 53% 29.84 in 10.0 mi NNW 17.3 mph 23.0 mph N/A   Overcast
7:55 PM 45.9 °F 38.8 °F 28.9 °F 52% 29.85 in 10.0 mi NW 17.3 mph 25.3 mph N/A   Overcast
8:15 PM 45.0 °F 38.2 °F 27.7 °F 51% 29.86 in 10.0 mi NW 15.0 mph 21.9 mph N/A   Overcast
8:35 PM 44.8 °F 38.3 °F 27.7 °F 51% 29.87 in 10.0 mi NW 13.8 mph 17.3 mph N/A   Overcast
8:55 PM 44.1 °F 39.0 °F 28.6 °F 55% 29.87 in 10.0 mi NW 9.2 mph - N/A   Overcast
9:15 PM 43.9 °F 40.5 °F 28.2 °F 54% 29.88 in 10.0 mi WNW 5.8 mph - N/A   Overcast
9:35 PM 43.9 °F 39.3 °F 27.9 °F 53% 29.89 in 10.0 mi WNW 8.1 mph - N/A   Overcast
9:55 PM 43.2 °F 37.9 °F 27.9 °F 55% 29.90 in 10.0 mi WNW 9.2 mph - N/A   Overcast
10:15 PM 42.6 °F 37.2 °F 27.5 °F 55% 29.90 in 10.0 mi NW 9.2 mph - N/A   Overcast
10:35 PM 41.5 °F 35.9 °F 27.5 °F 57% 29.91 in 10.0 mi NW 9.2 mph - N/A   Overcast
10:55 PM 41.0 °F 35.8 °F 27.9 °F 60% 29.91 in 10.0 mi NW 8.1 mph - N/A   Overcast
11:15 PM 39.4 °F 33.8 °F 27.3 °F 62% 29.92 in 10.0 mi NW 8.1 mph - N/A   Scattered Clouds
11:35 PM 40.1 °F 33.2 °F 27.5 °F 61% 29.93 in 10.0 mi NW 11.5 mph 18.4 mph N/A   Clear
11:55 PM 39.6 °F 32.5 °F 27.5 °F 62% 29.94 in 10.0 mi NW 11.5 mph - N/A   Clear